SCP
0 0 0 0 0 0 0 0 0 0 0 0 0 0 0 0 0 0 0 -0 -0 -0 -0 0 0 -0 -0 -0 0 0 0 0 0 0 0 0 0 0 0 -0 0 -0 0 0
0 0 0 0 0 0 0 0 0 0 0 0 0 0 0 0 0 -0 0 0 -0 -0 -0 -0 0 0 -0 0 0 -0 -0 0 0 0 0 0 0 0 0 -0 -0 -0 -0 -0
0 0 0 0 0 0 0 0 0 0 0 0 0 0 0 0 0 0 -0 0 -0 -0 -0 -0 -0 -0 0 0 0 0 0 0 0 0 0 0 0 0 0 0 -0 -0 -0 -0
0 0 0 0 0 0 0 0 0 0 0 0 0 0 0 0 0 0 0 -0 0 -0 -0 -0 -0 -0 -0 0 0 0 0 0 0 0 0 0 0 0 0 0 -0 -0 -0 -0
0 0 0 0 0 0 0 0 0 0 0 0 0 0 0 0 0 0 0 0 0 -0 -0 -0 -0 -0 -0 0 0 0 0 0 0 0 0 0 0 0 0 0 0 0 -0 -0
0 0 0 0 0 0 0 0 0 0 0 0 0 0 0 -0 0 0 0 0 0 -0 -0 -0 0 0 -0 0 0 0 0 1 0 0 0 0 0 0 0 0 0 0 -0 -0
0 0 0 0 0 0 0 0 0 0 0 0 0 0 0 0 0 0 0 0 0 0 0 0 0 0 0 0 0 0 1 1 1 0 0 0 0 -0 0 0 0 0 -0 -0
0 0 -0 0 0 0 0 0 0 0 0 0 0 0 0 0 0 0 0 0 0 0 0 0 0 0 0 0 0 0 1 1 0 0 1 1 0 -0 0 0 0 0 -0 -0
0 0 0 0 0 0 0 0 0 0 0 0 0 0 0 0 0 0 0 0 0 0 0 0 0 -0 -0 0 0 1 2 2 1 0 1 1 1 -0 -0 0 0 0 0 0
0 0 0 0 0 0 0 0 0 0 0 0 0 0 0 0 0 0 0 0 0 0 0 0 0 -0 -0 -0 0 0 1 2 1 1 1 1 0 0 0 0 0 0 -0 -0
0 0 0 0 0 0 0 0 0 0 0 0 0 0 0 0 -0 0 0 0 0 0 0 0 0 0 0 0 0 0 0 0 1 1 1 1 1 0 0 0 0 0 -0 -0
0 0 0 0 0 0 0 0 0 0 0 0 0 0 0 -0 0 0 0 0 0 0 0 0 0 0 0 0 0 0 0 0 0 1 2 1 1 1 0 0 -0 0 -0 -0
0 0 0 0 0 0 0 0 0 0 0 0 0 0 0 0 0 0 0 0 0 0 0 0 0 0 0 0 0 0 0 0 0 1 1 1 1 1 1 0 0 0 0 -0
0 0 0 0 0 0 0 0 0 0 0 0 0 0 0 0 0 0 0 0 0 0 0 0 0 0 0 0 0 0 0 0 0 1 1 1 1 1 1 1 1 0 0 0
0 0 0 0 0 0 0 0 0 0 0 0 0 0 0 0 0 0 0 0 0 0 0 0 0 0 0 0 0 0 0 1 0 1 1 2 2 2 2 1 1 1 1 0
0 0 0 0 0 0 0 0 0 0 0 0 0 0 0 0 0 0 0 0 0 0 0 0 0 0 0 0 -0 0 0 1 1 2 1 2 2 2 2 2 1 1 1 0
0 0 0 0 0 0 0 0 0 0 0 0 0 0 0 0 0 0 0 0 0 0 0 0 0 0 0 0 0 0 0 1 1 2 2 3 3 2 2 2 2 1 1 1
0 0 0 0 0 0 0 0 0 0 0 0 0 0 0 0 0 -0 0 0 0 0 0 0 0 0 0 0 0 0 0 1 1 2 2 2 2 3 3 3 2 2 2 1
0 0 0 0 0 0 0 0 0 0 0 0 0 0 0 0 0 -0 -0 0 0 0 0 0 0 0 0 0 0 0 0 0 1 2 2 2 2 2 3 2 2 2 2 2
0 0 0 0 0 0 0 0 0 0 0 0 0 0 0 0 0 0 0 -0 0 0 0 1 1 1 0 0 0 0 0 0 1 1 1 2 2 2 2 2 3 2 2 1
0 0 0 0 0 0 0 0 0 0 0 0 0 0 0 0 0 0 0 0 0 -0 0 2 3 2 0 0 0 1 0 0 0 1 1 2 2 2 2 3 3 3 2 2
-0 0 -0 -0 0 -0 -0 -0 0 0 0 0 0 0 0 0 0 0 0 0 0 0 0 1 7 2 1 0 1 3 1 1 1 1 1 2 1 1 1 1 2 2 2 2
0 0 0 -0 -0 0 0 0 0 0 0 0 0 0 0 0 0 0 0 0 0 0 0 0 2 7 10 3 2 1 2 3 1 1 1 1 1 1 1 1 1 1 2 2
0 -0 0 -0 -0 0 -0 0 0 0 0 0 0 0 0 0 0 0 0 0 0 0 0 0 0 0 0 1 7 9 7 4 1 0 0 1 0 0 1 1 1 1 1 1
0 0 0 0 0 -0 0 0 0 0 0 0 0 0 0 0 0 0 0 0 0 0 0 0 0 0 0 0 0 0 7 4 3 1 1 1 1 1 2 2 1 1 1 1
-0 0 0 0 0 0 0 0 0 0 0 0 0 0 0 0 0 0 0 0 0 0 0 0 0 0 0 0 0 0 0 0 6 3 3 2 2 2 2 2 2 0 0 0
Wind_Speed_500mb
36 32 44 44 40 37 15 26 39 26 27 34 41 35 30 33 35 39 44 50 56 61 63 63 60 59 58 56 53 52 51 48 47 41 38 35 34 30 25 22 22 18 15 12
24 41 40 35 32 36 34 26 30 22 20 28 38 43 33 35 36 43 47 50 55 57 63 67 65 65 65 62 59 56 54 56 57 43 40 35 32 28 23 22 24 21 16 11
36 11 40 34 33 35 39 41 29 26 24 28 32 43 45 37 35 38 42 45 50 59 67 71 71 72 68 68 66 62 61 62 63 46 43 38 33 28 27 25 27 21 20 15
34 43 15 37 42 39 41 39 33 27 23 28 37 32 40 41 36 38 46 53 57 63 64 68 73 74 75 72 66 63 64 66 68 65 48 47 41 35 29 27 25 23 21 18
26 27 39 36 36 42 35 30 32 33 32 33 35 35 38 50 47 43 48 57 59 64 69 71 77 77 75 70 71 66 64 70 65 72 59 52 47 38 32 29 29 28 24 20
35 13 23 45 38 25 25 35 32 32 30 35 48 38 39 44 48 42 48 57 60 65 71 71 69 70 72 72 69 69 68 78 80 76 76 64 54 45 40 37 33 29 25 23
33 36 33 27 35 41 32 33 20 24 28 34 41 39 39 36 42 42 43 58 63 65 68 71 71 75 76 79 79 75 76 80 86 84 76 76 68 56 46 40 38 33 30 28
20 28 40 37 36 41 47 40 24 39 32 37 40 34 44 51 32 37 46 56 55 60 65 70 76 76 78 81 81 79 81 85 87 87 85 78 78 60 54 49 39 35 32 29
9 30 5 9 27 26 40 48 46 46 31 24 33 41 35 43 53 40 32 43 46 59 65 73 77 80 79 80 88 91 90 92 91 86 86 80 81 76 58 55 52 43 37 31
5 16 12 9 15 35 39 25 44 34 42 43 28 35 25 46 45 52 50 47 48 52 56 65 72 77 79 80 81 84 86 93 95 87 88 80 82 81 77 63 61 50 44 42
8 10 15 12 24 38 35 39 32 39 38 34 35 27 26 30 45 45 50 66 59 48 56 60 69 74 79 77 77 83 84 81 80 90 91 88 84 82 80 69 67 63 55 52
5 9 21 30 5 14 31 29 54 28 51 41 35 15 24 22 28 38 55 50 62 67 62 62 62 64 70 79 81 83 83 81 78 87 93 94 91 86 74 77 69 65 59 54
12 11 18 28 33 25 20 22 30 34 37 44 38 39 17 9 8 15 30 52 52 48 51 52 57 64 70 77 84 87 86 84 80 79 80 83 86 84 82 81 76 70 64 57
9 22 22 24 21 19 11 18 11 25 32 35 38 37 40 44 29 24 22 16 14 17 37 48 53 60 67 74 85 90 86 83 82 77 76 83 90 92 86 83 78 73 68 61
17 24 23 28 28 22 27 29 33 37 35 41 38 45 35 25 25 28 25 20 11 14 17 39 51 59 64 69 81 86 84 83 81 86 81 86 92 90 88 85 79 75 70 67
17 20 20 27 29 34 41 37 39 41 44 37 42 48 42 47 15 28 21 17 19 19 17 16 31 44 54 66 77 83 88 89 88 90 92 90 97 96 92 88 85 79 74 71
26 19 22 29 24 31 29 40 44 46 48 43 46 43 47 39 26 22 20 16 18 21 24 23 28 38 49 60 68 84 97 91 91 93 94 94 98 98 95 91 87 85 78 74
18 27 20 24 22 33 31 29 41 48 45 49 47 42 47 53 48 15 15 13 19 23 27 30 34 39 47 51 58 65 68 84 86 88 95 92 97 98 94 91 89 84 79 79
37 22 15 23 25 32 31 17 32 38 48 49 27 40 50 41 55 38 11 15 20 28 33 38 39 41 40 52 60 68 70 76 80 88 97 98 91 95 94 91 90 84 79 78
38 35 15 20 19 30 7 16 42 55 22 19 33 35 31 35 28 25 13 18 23 27 29 37 42 42 46 50 61 69 75 83 94 97 94 93 89 89 91 89 88 83 80 80
22 19 27 27 25 20 20 17 42 11 7 6 18 18 24 28 7 14 15 17 16 20 25 30 30 39 41 46 63 75 76 90 81 67 66 75 80 83 82 80 76 75 76 69
20 16 17 24 30 32 17 14 11 19 12 10 5 3 6 12 15 20 27 26 27 28 24 22 12 13 25 37 60 67 71 63 64 63 62 69 80 74 66 75 73 70 70 69
7 9 6 10 7 22 23 22 42 40 23 10 10 7 6 14 19 24 33 40 42 42 39 31 24 24 26 25 39 45 54 58 54 58 61 62 64 65 59 67 68 64 66 58
7 5 6 4 7 17 18 29 35 32 25 15 10 9 11 12 17 24 38 44 50 57 44 41 34 37 38 31 33 35 40 46 49 50 50 48 49 50 50 46 48 50 52 53
8 14 9 9 15 29 14 33 28 5 10 6 8 12 15 17 21 23 30 38 45 50 55 46 41 46 47 38 27 28 28 35 42 44 43 42 42 48 45 45 41 44 44 44
25 10 8 4 31 23 16 27 22 18 14 7 10 17 21 23 23 25 24 30 36 40 41 48 50 53 50 42 36 36 44 46 33 35 37 38 37 37 39 40 38 47 46 49
Wind_Direction_500mb
198 206 213 212 218 238 285 223 235 211 215 208 221 223 166 180 191 187 188 189 192 195 192 194 195 197 196 195 195 194 192 194 193 194 193 194 192 192 195 194 201 196 187 190
184 225 222 234 220 229 235 235 235 246 212 230 224 226 210 178 200 195 194 193 193 192 192 195 197 198 198 198 198 197 197 198 197 196 193 196 196 202 203 207 202 193 195 196
219 226 217 222 224 219 229 226 230 234 211 226 242 232 219 197 200 209 203 201 197 194 194 196 198 199 200 201 200 201 200 202 203 195 194 196 198 199 205 206 198 205 206 209
235 244 203 212 222 217 232 217 243 234 245 233 207 232 217 213 208 209 201 200 200 197 198 199 199 201 202 203 203 203 204 204 206 205 201 201 199 201 204 208 203 201 205 211
220 219 229 223 227 220 243 242 219 231 238 255 239 229 234 208 209 207 206 206 204 200 199 199 202 203 204 204 205 204 205 209 205 211 203 211 204 209 212 205 209 196 208 212
262 211 255 229 223 219 226 232 228 232 232 235 231 234 220 227 207 206 208 207 206 200 202 203 203 203 205 205 205 206 206 211 211 213 214 212 213 205 206 207 212 212 216 220
225 238 230 236 218 208 214 206 198 213 215 233 218 234 235 222 214 216 208 205 205 204 203 203 201 201 203 204 204 204 207 211 213 213 216 219 216 213 211 210 213 216 219 221
256 219 214 209 240 206 212 209 225 213 213 228 214 228 226 238 266 213 221 208 205 207 207 205 206 204 203 204 204 203 207 213 211 214 217 219 220 216 217 222 212 222 220 225
263 238 116 256 229 250 202 219 226 252 250 254 220 212 247 213 223 218 221 226 198 206 209 207 207 206 205 204 204 204 204 215 213 211 216 218 217 215 217 219 229 222 223 224
96 265 191 161 248 241 256 219 221 237 241 242 222 235 209 209 218 214 218 208 213 207 211 210 209 209 208 207 207 206 207 214 213 210 215 214 218 220 222 227 227 228 225 231
289 255 175 217 211 221 210 238 240 231 229 240 235 224 226 230 212 219 222 220 209 207 210 211 210 211 210 208 206 206 206 207 207 211 215 217 218 222 225 225 232 235 234 237
182 282 255 246 149 316 308 259 224 230 222 236 267 246 211 195 227 215 228 220 223 217 216 218 215 211 210 209 207 205 206 205 206 209 215 220 221 222 221 224 226 230 230 230
188 226 245 230 232 227 250 254 252 263 265 244 226 228 244 173 229 276 229 223 220 224 226 226 217 215 212 210 208 206 205 204 204 203 207 213 216 218 220 224 224 228 227 228
253 261 256 269 13 7 277 274 236 279 247 238 243 254 215 234 246 262 218 242 260 248 238 226 218 214 210 209 208 207 206 205 204 204 202 209 217 219 218 218 222 226 228 228
246 254 245 261 280 279 272 269 259 256 262 252 249 237 250 251 267 271 290 278 251 252 236 221 216 213 210 208 207 207 207 205 204 205 204 209 214 216 220 221 221 225 228 229
235 248 263 259 269 270 268 274 269 251 247 252 257 268 285 285 276 289 288 282 276 262 257 237 223 220 215 211 208 206 204 204 201 205 206 208 213 215 217 221 224 227 229 231
223 242 244 256 256 263 264 260 253 255 237 236 237 244 260 264 248 278 288 277 276 272 268 258 242 228 220 214 210 208 205 203 203 204 206 208 215 215 216 219 222 225 225 230
240 239 249 258 266 250 255 286 269 268 237 229 240 246 242 258 277 272 281 303 289 282 275 266 254 241 230 223 216 210 208 204 204 203 210 212 215 217 216 218 222 224 225 228
224 232 250 246 246 252 265 357 354 326 272 219 227 243 248 262 273 226 279 313 300 292 285 274 263 251 235 221 214 209 204 204 203 204 212 216 215 215 215 217 220 221 221 224
210 216 216 261 254 254 297 328 329 325 248 156 224 244 248 249 236 227 344 338 319 304 296 286 270 253 237 221 208 205 203 199 202 208 210 211 211 213 214 215 218 219 221 224
203 204 225 234 250 256 276 0 346 270 72 131 232 235 248 239 319 26 23 17 345 328 322 308 280 247 231 210 200 202 199 204 206 202 201 204 207 210 213 216 216 218 221 221
193 198 208 233 250 248 31 6 240 325 1 340 298 212 112 86 70 55 56 43 35 30 11 14 26 205 200 195 194 193 199 199 200 197 197 202 208 207 208 215 217 217 218 221
224 232 247 246 229 359 327 247 265 300 309 304 328 22 64 88 66 56 55 49 48 49 45 45 51 78 114 167 182 193 197 195 195 193 195 200 203 205 203 209 210 210 214 212
236 259 246 303 187 267 251 268 272 287 304 297 310 6 45 60 53 56 49 45 47 52 51 56 65 71 75 109 142 166 185 188 187 188 188 190 195 198 198 206 208 209 214 216
307 315 280 264 280 307 246 264 277 261 288 309 329 16 20 35 32 33 37 46 45 51 55 53 54 61 79 85 107 143 144 179 179 180 182 185 191 198 198 200 208 213 214 219
357 354 346 336 338 344 351 20 29 68 38 25 17 36 31 36 30 37 30 36 36 41 42 48 52 59 62 73 74 100 131 136 154 167 174 180 186 195 190 196 202 207 208 220
Wind_Speed_850mb
36 32 44 44 40 37 15 26 39 26 27 34 41 35 30 33 35 39 44 50 56 61 63 63 60 59 58 56 53 52 51 48 47 41 38 35 34 30 25 22 22 18 15 12
24 41 40 35 32 36 34 26 30 22 20 28 38 43 33 35 36 43 47 50 55 57 63 67 65 65 65 62 59 56 54 56 57 43 40 35 32 28 23 22 24 21 16 11
36 11 40 34 33 35 39 41 29 26 24 28 32 43 45 37 35 38 42 45 50 59 67 71 71 72 68 68 66 62 61 62 63 46 43 38 33 28 27 25 27 21 20 15
34 43 15 37 42 39 41 39 33 27 23 28 37 32 40 41 36 38 46 53 57 63 64 68 73 74 75 72 66 63 64 66 68 65 48 47 41 35 29 27 25 23 21 18
26 27 39 36 36 42 35 30 32 33 32 33 35 35 38 50 47 43 48 57 59 64 69 71 77 77 75 70 71 66 64 70 65 72 59 52 47 38 32 29 29 28 24 20
35 13 23 45 38 25 25 35 32 32 30 35 48 38 39 44 48 42 48 57 60 65 71 71 69 70 72 72 69 69 68 78 80 76 76 64 54 45 40 37 33 29 25 23
33 36 33 27 35 41 32 33 20 24 28 34 41 39 39 36 42 42 43 58 63 65 68 71 71 75 76 79 79 75 76 80 86 84 76 76 68 56 46 40 38 33 30 28
20 28 40 37 36 41 47 40 24 39 32 37 40 34 44 51 32 37 46 56 55 60 65 70 76 76 78 81 81 79 81 85 87 87 85 78 78 60 54 49 39 35 32 29
9 30 5 9 27 26 40 48 46 46 31 24 33 41 35 43 53 40 32 43 46 59 65 73 77 80 79 80 88 91 90 92 91 86 86 80 81 76 58 55 52 43 37 31
5 16 12 9 15 35 39 25 44 34 42 43 28 35 25 46 45 52 50 47 48 52 56 65 72 77 79 80 81 84 86 93 95 87 88 80 82 81 77 63 61 50 44 42
8 10 15 12 24 38 35 39 32 39 38 34 35 27 26 30 45 45 50 66 59 48 56 60 69 74 79 77 77 83 84 81 80 90 91 88 84 82 80 69 67 63 55 52
5 9 21 30 5 14 31 29 54 28 51 41 35 15 24 22 28 38 55 50 62 67 62 62 62 64 70 79 81 83 83 81 78 87 93 94 91 86 74 77 69 65 59 54
12 11 18 28 33 25 20 22 30 34 37 44 38 39 17 9 8 15 30 52 52 48 51 52 57 64 70 77 84 87 86 84 80 79 80 83 86 84 82 81 76 70 64 57
9 22 22 24 21 19 11 18 11 25 32 35 38 37 40 44 29 24 22 16 14 17 37 48 53 60 67 74 85 90 86 83 82 77 76 83 90 92 86 83 78 73 68 61
17 24 23 28 28 22 27 29 33 37 35 41 38 45 35 25 25 28 25 20 11 14 17 39 51 59 64 69 81 86 84 83 81 86 81 86 92 90 88 85 79 75 70 67
17 20 20 27 29 34 41 37 39 41 44 37 42 48 42 47 15 28 21 17 19 19 17 16 31 44 54 66 77 83 88 89 88 90 92 90 97 96 92 88 85 79 74 71
26 19 22 29 24 31 29 40 44 46 48 43 46 43 47 39 26 22 20 16 18 21 24 23 28 38 49 60 68 84 97 91 91 93 94 94 98 98 95 91 87 85 78 74
18 27 20 24 22 33 31 29 41 48 45 49 47 42 47 53 48 15 15 13 19 23 27 30 34 39 47 51 58 65 68 84 86 88 95 92 97 98 94 91 89 84 79 79
37 22 15 23 25 32 31 17 32 38 48 49 27 40 50 41 55 38 11 15 20 28 33 38 39 41 40 52 60 68 70 76 80 88 97 98 91 95 94 91 90 84 79 78
38 35 15 20 19 30 7 16 42 55 22 19 33 35 31 35 28 25 13 18 23 27 29 37 42 42 46 50 61 69 75 83 94 97 94 93 89 89 91 89 88 83 80 80
22 19 27 27 25 20 20 17 42 11 7 6 18 18 24 28 7 14 15 17 16 20 25 30 30 39 41 46 63 75 76 90 81 67 66 75 80 83 82 80 76 75 76 69
20 16 17 24 30 32 17 14 11 19 12 10 5 3 6 12 15 20 27 26 27 28 24 22 12 13 25 37 60 67 71 63 64 63 62 69 80 74 66 75 73 70 70 69
7 9 6 10 7 22 23 22 42 40 23 10 10 7 6 14 19 24 33 40 42 42 39 31 24 24 26 25 39 45 54 58 54 58 61 62 64 65 59 67 68 64 66 58
7 5 6 4 7 17 18 29 35 32 25 15 10 9 11 12 17 24 38 44 50 57 44 41 34 37 38 31 33 35 40 46 49 50 50 48 49 50 50 46 48 50 52 53
8 14 9 9 15 29 14 33 28 5 10 6 8 12 15 17 21 23 30 38 45 50 55 46 41 46 47 38 27 28 28 35 42 44 43 42 42 48 45 45 41 44 44 44
25 10 8 4 31 23 16 27 22 18 14 7 10 17 21 23 23 25 24 30 36 40 41 48 50 53 50 42 36 36 44 46 33 35 37 38 37 37 39 40 38 47 46 49
Wind_Direction_850mb
198 206 213 212 218 238 285 223 235 211 215 208 221 223 166 180 191 187 188 189 192 195 192 194 195 197 196 195 195 194 192 194 193 194 193 194 192 192 195 194 201 196 187 190
184 225 222 234 220 229 235 235 235 246 212 230 224 226 210 178 200 195 194 193 193 192 192 195 197 198 198 198 198 197 197 198 197 196 193 196 196 202 203 207 202 193 195 196
219 226 217 222 224 219 229 226 230 234 211 226 242 232 219 197 200 209 203 201 197 194 194 196 198 199 200 201 200 201 200 202 203 195 194 196 198 199 205 206 198 205 206 209
235 244 203 212 222 217 232 217 243 234 245 233 207 232 217 213 208 209 201 200 200 197 198 199 199 201 202 203 203 203 204 204 206 205 201 201 199 201 204 208 203 201 205 211
220 219 229 223 227 220 243 242 219 231 238 255 239 229 234 208 209 207 206 206 204 200 199 199 202 203 204 204 205 204 205 209 205 211 203 211 204 209 212 205 209 196 208 212
262 211 255 229 223 219 226 232 228 232 232 235 231 234 220 227 207 206 208 207 206 200 202 203 203 203 205 205 205 206 206 211 211 213 214 212 213 205 206 207 212 212 216 220
225 238 230 236 218 208 214 206 198 213 215 233 218 234 235 222 214 216 208 205 205 204 203 203 201 201 203 204 204 204 207 211 213 213 216 219 216 213 211 210 213 216 219 221
256 219 214 209 240 206 212 209 225 213 213 228 214 228 226 238 266 213 221 208 205 207 207 205 206 204 203 204 204 203 207 213 211 214 217 219 220 216 217 222 212 222 220 225
263 238 116 256 229 250 202 219 226 252 250 254 220 212 247 213 223 218 221 226 198 206 209 207 207 206 205 204 204 204 204 215 213 211 216 218 217 215 217 219 229 222 223 224
96 265 191 161 248 241 256 219 221 237 241 242 222 235 209 209 218 214 218 208 213 207 211 210 209 209 208 207 207 206 207 214 213 210 215 214 218 220 222 227 227 228 225 231
289 255 175 217 211 221 210 238 240 231 229 240 235 224 226 230 212 219 222 220 209 207 210 211 210 211 210 208 206 206 206 207 207 211 215 217 218 222 225 225 232 235 234 237
182 282 255 246 149 316 308 259 224 230 222 236 267 246 211 195 227 215 228 220 223 217 216 218 215 211 210 209 207 205 206 205 206 209 215 220 221 222 221 224 226 230 230 230
188 226 245 230 232 227 250 254 252 263 265 244 226 228 244 173 229 276 229 223 220 224 226 226 217 215 212 210 208 206 205 204 204 203 207 213 216 218 220 224 224 228 227 228
253 261 256 269 13 7 277 274 236 279 247 238 243 254 215 234 246 262 218 242 260 248 238 226 218 214 210 209 208 207 206 205 204 204 202 209 217 219 218 218 222 226 228 228
246 254 245 261 280 279 272 269 259 256 262 252 249 237 250 251 267 271 290 278 251 252 236 221 216 213 210 208 207 207 207 205 204 205 204 209 214 216 220 221 221 225 228 229
235 248 263 259 269 270 268 274 269 251 247 252 257 268 285 285 276 289 288 282 276 262 257 237 223 220 215 211 208 206 204 204 201 205 206 208 213 215 217 221 224 227 229 231
223 242 244 256 256 263 264 260 253 255 237 236 237 244 260 264 248 278 288 277 276 272 268 258 242 228 220 214 210 208 205 203 203 204 206 208 215 215 216 219 222 225 225 230
240 239 249 258 266 250 255 286 269 268 237 229 240 246 242 258 277 272 281 303 289 282 275 266 254 241 230 223 216 210 208 204 204 203 210 212 215 217 216 218 222 224 225 228
224 232 250 246 246 252 265 357 354 326 272 219 227 243 248 262 273 226 279 313 300 292 285 274 263 251 235 221 214 209 204 204 203 204 212 216 215 215 215 217 220 221 221 224
210 216 216 261 254 254 297 328 329 325 248 156 224 244 248 249 236 227 344 338 319 304 296 286 270 253 237 221 208 205 203 199 202 208 210 211 211 213 214 215 218 219 221 224
203 204 225 234 250 256 276 0 346 270 72 131 232 235 248 239 319 26 23 17 345 328 322 308 280 247 231 210 200 202 199 204 206 202 201 204 207 210 213 216 216 218 221 221
193 198 208 233 250 248 31 6 240 325 1 340 298 212 112 86 70 55 56 43 35 30 11 14 26 205 200 195 194 193 199 199 200 197 197 202 208 207 208 215 217 217 218 221
224 232 247 246 229 359 327 247 265 300 309 304 328 22 64 88 66 56 55 49 48 49 45 45 51 78 114 167 182 193 197 195 195 193 195 200 203 205 203 209 210 210 214 212
236 259 246 303 187 267 251 268 272 287 304 297 310 6 45 60 53 56 49 45 47 52 51 56 65 71 75 109 142 166 185 188 187 188 188 190 195 198 198 206 208 209 214 216
307 315 280 264 280 307 246 264 277 261 288 309 329 16 20 35 32 33 37 46 45 51 55 53 54 61 79 85 107 143 144 179 179 180 182 185 191 198 198 200 208 213 214 219
357 354 346 336 338 344 351 20 29 68 38 25 17 36 31 36 30 37 30 36 36 41 42 48 52 59 62 73 74 100 131 136 154 167 174 180 186 195 190 196 202 207 208 220